Weather Roundup
Issued by NWS Sterling, VA

Home | Current Version | Previous Version | Text Only | Print | Product List | Glossary On
Versions: 1 2 3 4 5 6 7 8 9 10 11 12 13 14 15 16 17 18 19 20 21 22 23 24 25 26 27 28 29 30 31 32 33 34 35 36 37 38 39 40 41 42 43 44 45 46 47 48 49 50
000
NZUS51 KLWX 300212
HRRLWX

HOURLY OBSERVATIONS AROUND THE LWX CWA
900 PM EST MON NOV 29 2021

Note: "FAIR" indicates few or no clouds below 12,000 feet
with no significant weather and/or obstructions to visibility.

 * =Non NWS site. Station does not report significant weather
    and/or obstructions to visibility.

...DOWNTOWN AREAS...

CITY           SKY/WX    TMP DP  RH WIND       PRES   REMARKS
WASHINGTON NAT PTCLDY    40  22  48 W6        30.09S


...WASHINGTON SUBURBS...

CITY           SKY/WX    TMP DP  RH WIND       PRES   REMARKS
DULLES         PTCLDY    29  22  75 CALM      30.07S
MANASSAS*      CLEAR     25  22  88 CALM      30.09R
LEESBURG*      PTCLDY    30  28  93 CALM      30.08S
GAITHERSBURG*  CLEAR     30  21  69 CALM      30.07R
FT BELVOIR     CLEAR     29  23  78 CALM      30.08S
QUANTICO       CLEAR     34  25  69 W9        30.10S WCI  27
ANDREWS AFB    CLEAR     30  22  71 CALM      30.05S
COLLEGE PARK*  CLEAR     30  21  68 CALM      30.07S

...CENTRAL VIRGINIA...

CITY           SKY/WX    TMP DP  RH WIND       PRES   REMARKS
CULPEPER*      CLEAR     27  20  75 CALM      30.09S
CHARLOTTESVILL CLEAR     37  17  44 CALM      30.07R
WARRENTON*     CLEAR     24  21  85 CALM      30.08R
ORANGE*        CLEAR     28  21  74 CALM      30.07S
GORDONSVILLE*  CLEAR     29  22  74 NW5       30.07S WCI  24
STAFFORD*      CLEAR     31  20  63 CALM      30.12S
FREDERICKSBRG* CLEAR     31  23  71 CALM      30.07R
LOUISA*        CLEAR     26  19  72 CALM      30.12R
ASHLAND        CLEAR     31  22  69 CALM      30.10R
RICHMOND       CLEAR     36  22  56 CALM      30.09R

...NORTHEAST/CENTRAL MARYLAND...

CITY           SKY/WX    TMP DP  RH WIND       PRES   REMARKS
BWI AIRPORT    PTCLDY    39  23  52 W3        30.06S
ANNAPOLIS      CLEAR     40  23  50 W5        30.07S
MARTIN AIRPORT CLOUDY    36  32  87 CALM      30.08R
ABERDEEN*      CLOUDY    29  25  85 CALM      30.06R
WESTMINSTER*   CLOUDY    39  25  56 NW7       30.04S WCI  34
FREDERICK*     MOCLDY    28  25  86 CALM      30.07S
FORT MEADE*    CLEAR     30  27  86 CALM      30.10R

...SOUTHERN MARYLAND...

CITY           SKY/WX    TMP DP  RH WIND       PRES   REMARKS
PATUXENT RIVER CLEAR     41  24  51 NW10      30.07R WCI  35
ST MARYS CITY  CLEAR     39  24  55 CALM      30.08R
LEONARDTOWN*   CLEAR     34  27  75 CALM      30.09S

...MARYLAND EASTERN SHORE...

CITY           SKY/WX    TMP DP  RH WIND       PRES   REMARKS
SALISBURY      CLOUDY    31  26  82 SW3       30.07R
CAMBRIDGE*     CLEAR     41  27  56 NW6G13    30.07R
OCEAN CITY     CLEAR     29  24  82 W5        30.07R WCI  24
EASTON*        CLEAR     37  27  65 NW3       30.11R

...SHENANDOAH VALLEY...

CITY           SKY/WX    TMP DP  RH WIND       PRES   REMARKS
MARTINSBURG    PTCLDY    28  18  66 CALM      30.05S
HAGERSTOWN APT PTCLDY    37  19  48 NW10      30.05R WCI  30
STAUNTON*      CLEAR     24  17  74 CALM      30.09R
WINCHESTER*    PTCLDY    32  19  59 W5        30.05R WCI  27
FRONT ROYAL*   CLEAR     36  19  51 SW5       30.06R WCI  32
LURAY*         CLEAR     30  21  69 SE6       30.06S WCI  24
NEW MARKET*    CLEAR     27  21  79 SW3       30.07R
WAYNESBORO*    CLEAR     27  16  64 CALM      30.07R

...APPALACHIANS...

CITY           SKY/WX    TMP DP  RH WIND       PRES   REMARKS
PETERSBURG WV* PTCLDY    27  21  78 CALM      30.08S
CUMBERLAND*    PTCLDY    32  18  56 CALM      30.10R
OAKLAND*       PTCLDY    27  16  63 W6        29.96S WCI  20
ELKINS         CLEAR     22  15  75 CALM      30.04S
BEDFORD PA*    PTCLDY    30  19  63 CALM      30.03S
JOHNSTOWN      PTCLDY    28  15  58 W6        29.96F WCI  22
ALTOONA        PTCLDY    33  21  61 SW3       30.01S

...SOUTHERN PENNSYLVANIA/DELAWARE...

CITY           SKY/WX    TMP DP  RH WIND       PRES   REMARKS
YORK           CLOUDY    39  22  50 NW6       30.04S WCI  35
WILMINGTON     CLEAR     33  22  63 W5        30.05R WCI  29

...MARINE OBSERVATIONS...

STATION/POSITION TIME  TEMP    WIND        PRES
                       AIR SEA DIR/SP/G
                 (UTC) (F)     (DEG/KT/KT) (MB)
THOMAS PT LIGHT  0200   41 47  280/  7/  7 1019.2R
TOLCHESTER       0130   42 44  330/  6/  7 1018.2R
COVE POINT       0130   42     280/ 15/ 19 1018.4R
GOOSES REEF      0154   40 50  320/ 14/ 19 1019.0F
BALT HARBOR      0130   43 53  310/  3/  8 1017.5R
BALT KEY BRIDGE  0130   43     290/ 11/ 12 1018.0R
WASH DC CHANNEL  0130   38 45   CALM  /  3 1018.4R
DAHLGREN         0124   38 46  250/  1/  1 1018.1
LEWISETTA        0124   43 45  360/  7/ 12 1018.7
SOLOMONS ISLAND  0130   42 50  340/  6/  9 1018.2R
PINEY POINT      0124          360/ 10/ 12   N/A
POTOMAC BUOY     0154   39 49  340/ 12/ 16 1019.1R
CAMBRIDGE PIER   0130   43 44  320/ 12/ 15 1018.0R
BISHOPS HEAD     0130   38 43  320/  6/  7 1018.3R
CHESAPEAKE CITY  0130   33 44   CALM  /  1 1017.8R




USA.gov is the U.S. government's official web portal to all federal, state and local government web resources and services.